Mojave, CA

3:58 AM PST on December 11, 2019 (GMT -0800)
Mojave

Weather History for KMHV - May, 2019

Change the Weather History Date:

Tuesday, May 14, 2019

  Actual Average Record
Temperature  
Mean Temperature 73 °F -  
Max Temperature 84 °F 81 °F 94 °F (1987)
Min Temperature 62 °F 54 °F 34 °F (1977)
Cooling Degree Days 8    
Growing Degree Days 23 (Base 50)    
Moisture  
Dew Point 38 °F    
Average Humidity 29    
Maximum Humidity 49    
Minimum Humidity 18    
Precipitation  
Precipitation 0.00 in - - ()
Sea Level Pressure  
Sea Level Pressure 29.98 in    
Wind  
Wind Speed 13 mph (WSW)    
Max Wind Speed 24 mph    
Max Gust Speed 32 mph    
Visibility 10 miles    
Events      
Averages and records for this station are not official NWS values.
T = Trace of Precipitation, MM = Missing Value Source: NWS Daily Summary

Daily Weather History Graph

Daily Weather History Graph

Search for Another Location

Airport or City:

Astronomy

May. 14, 2019 Rise Set
Actual Time 5:49 AM PDT 7:48 PM PDT
Civil Twilight 5:21 AM PDT 8:16 PM PDT
Nautical Twilight 4:47 AM PDT 8:50 PM PDT
Astronomical Twilight 4:11 AM PDT 9:27 PM PDT
Moon 3:28 PM PDT (5/14) 3:30 AM PDT (5/14)
Length of Visible Light 14h 54m
Length of Day
13h 58m
Waxing Gibbous, 80% of the Moon is Illuminated
May 14
Waxing Gibbous
May 18
Full
May 26
Last Quarter
Jun 3
New
Jun 9
First Quarter

Hourly Weather History & Observations

Time (PDT) Temp. Dew Point Humidity Pressure Visibility Wind Dir Wind Speed Gust Speed Precip Events Conditions
12:00 AM 68.0 °F 35.6 °F 30% 29.98 in 10.0 mi NW 24.2 mph 32.2 mph N/A   Clear
12:20 AM 68.0 °F 35.6 °F 30% 29.98 in 10.0 mi NW 20.7 mph 32.2 mph N/A   Clear
12:40 AM 68.0 °F 35.6 °F 30% 29.98 in 10.0 mi NW 24.2 mph 31.1 mph N/A   Clear
1:00 AM 68.0 °F 35.6 °F 30% 29.98 in 10.0 mi NW 18.4 mph 29.9 mph N/A   Clear
1:20 AM 68.0 °F 35.6 °F 30% 29.99 in 10.0 mi NW 12.7 mph 19.6 mph N/A   Clear
1:40 AM 66.2 °F 35.6 °F 32% 29.99 in 10.0 mi SW 11.5 mph - N/A   Clear
2:00 AM 66.2 °F 35.6 °F 32% 29.99 in 10.0 mi Calm Calm - N/A   Clear
2:20 AM 66.2 °F 37.4 °F 35% 29.99 in 10.0 mi Variable 3.5 mph - N/A   Clear
2:40 AM 66.2 °F 37.4 °F 35% 29.98 in 10.0 mi West 11.5 mph 21.9 mph N/A   Clear
3:00 AM 66.2 °F 37.4 °F 35% 29.98 in 10.0 mi Variable 5.8 mph 17.3 mph N/A   Clear
3:20 AM 64.4 °F 37.4 °F 37% 29.98 in 10.0 mi Calm Calm - N/A   Clear
3:40 AM 64.4 °F 37.4 °F 37% 29.98 in 10.0 mi South 6.9 mph - N/A   Clear
4:00 AM 64.4 °F 37.4 °F 37% 29.98 in 10.0 mi SE 4.6 mph - N/A   Clear
4:20 AM 62.6 °F 37.4 °F 39% 29.98 in 10.0 mi Variable 6.9 mph - N/A   Clear
4:40 AM 66.2 °F 37.4 °F 35% 29.98 in 10.0 mi WNW 12.7 mph 19.6 mph N/A   Clear
5:20 AM 66.2 °F 35.6 °F 32% 29.98 in 10.0 mi WNW 11.5 mph 18.4 mph N/A   Clear
5:40 AM 64.4 °F 35.6 °F 34% 29.99 in 10.0 mi West 8.1 mph 15.0 mph N/A   Clear
6:00 AM 62.6 °F 37.4 °F 39% 29.99 in 10.0 mi Calm Calm - N/A   Clear
6:20 AM 64.4 °F 35.6 °F 34% 29.99 in 10.0 mi Variable 6.9 mph - N/A   Clear
6:40 AM 66.2 °F 37.4 °F 35% 30.00 in 10.0 mi West 9.2 mph 16.1 mph N/A   Clear
7:00 AM 66.2 °F 35.6 °F 32% 30.00 in 10.0 mi West 12.7 mph 19.6 mph N/A   Clear
7:20 AM 68.0 °F 35.6 °F 30% 30.00 in 10.0 mi West 15.0 mph - N/A   Clear
7:40 AM 69.8 °F 35.6 °F 28% 30.00 in 10.0 mi West 11.5 mph 17.3 mph N/A   Clear
8:00 AM 71.6 °F 35.6 °F 27% 30.00 in 10.0 mi NW 10.4 mph - N/A   Clear
8:20 AM 73.4 °F 35.6 °F 25% 30.01 in 10.0 mi West 10.4 mph - N/A   Clear
8:40 AM 73.4 °F 35.6 °F 25% 30.01 in 10.0 mi West 9.2 mph - N/A   Clear
9:00 AM 75.2 °F 35.6 °F 24% 30.01 in 10.0 mi WNW 11.5 mph - N/A   Clear
9:20 AM 75.2 °F 35.6 °F 24% 30.01 in 10.0 mi West 10.4 mph - N/A   Clear
9:40 AM 77.0 °F 35.6 °F 22% 30.02 in 10.0 mi West 9.2 mph - N/A   Clear
10:00 AM 77.0 °F 35.6 °F 22% 30.01 in 10.0 mi West 11.5 mph - N/A   Clear
10:20 AM 77.0 °F 35.6 °F 22% 30.01 in 10.0 mi WSW 11.5 mph - N/A   Clear
10:40 AM 78.8 °F 33.8 °F 20% 30.02 in 10.0 mi West 9.2 mph - N/A   Clear
11:00 AM 78.8 °F 33.8 °F 20% 30.02 in 10.0 mi West 12.7 mph 18.4 mph N/A   Clear
11:20 AM 78.8 °F 35.6 °F 21% 30.02 in 10.0 mi WSW 12.7 mph 19.6 mph N/A   Clear
11:40 AM 80.6 °F 35.6 °F 20% 30.02 in 10.0 mi WSW 11.5 mph 17.3 mph N/A   Clear
12:00 PM 80.6 °F 35.6 °F 20% 30.01 in 10.0 mi West 6.9 mph 19.6 mph N/A   Clear
12:20 PM 80.6 °F 35.6 °F 20% 30.01 in 10.0 mi NW 9.2 mph 18.4 mph N/A   Clear
12:40 PM 80.6 °F 35.6 °F 20% 30.00 in 10.0 mi NW 10.4 mph 16.1 mph N/A   Clear
1:00 PM 82.4 °F 35.6 °F 19% 29.99 in 10.0 mi SW 8.1 mph 19.6 mph N/A   Clear
1:20 PM 82.4 °F 35.6 °F 19% 29.98 in 10.0 mi WNW 9.2 mph 17.3 mph N/A   Clear
1:40 PM 84.2 °F 35.6 °F 18% 29.98 in 10.0 mi WSW 12.7 mph 23.0 mph N/A   Clear
2:00 PM 82.4 °F 37.4 °F 20% 29.97 in 10.0 mi South 19.6 mph - N/A   Clear
2:20 PM 82.4 °F 37.4 °F 20% 29.97 in 10.0 mi South 18.4 mph 27.6 mph N/A   Clear
2:40 PM 82.4 °F 37.4 °F 20% 29.96 in 10.0 mi SSW 15.0 mph 26.5 mph N/A   Clear
3:00 PM 82.4 °F 37.4 °F 20% 29.95 in 10.0 mi SSW 21.9 mph 29.9 mph N/A   Clear
3:20 PM 82.4 °F 37.4 °F 20% 29.95 in 10.0 mi South 19.6 mph 29.9 mph N/A   Clear
3:40 PM 82.4 °F 37.4 °F 20% 29.94 in 10.0 mi SSW 18.4 mph 29.9 mph N/A   Clear
4:00 PM 82.4 °F 37.4 °F 20% 29.94 in 10.0 mi SSW 20.7 mph 27.6 mph N/A   Clear
4:20 PM 82.4 °F 37.4 °F 20% 29.94 in 10.0 mi SW 20.7 mph 27.6 mph N/A   Clear
4:40 PM 80.6 °F 37.4 °F 21% 29.93 in 10.0 mi SSW 21.9 mph 27.6 mph N/A   Clear
5:00 PM 80.6 °F 37.4 °F 21% 29.93 in 10.0 mi SSW 21.9 mph 27.6 mph N/A   Clear
5:20 PM 80.6 °F 37.4 °F 21% 29.93 in 10.0 mi SSW 21.9 mph - N/A   Clear
5:40 PM 80.6 °F 37.4 °F 21% 29.93 in 10.0 mi SW 24.2 mph - N/A   Clear
6:00 PM 78.8 °F 37.4 °F 23% 29.93 in 10.0 mi SSW 21.9 mph 28.8 mph N/A   Clear
6:20 PM 78.8 °F 37.4 °F 23% 29.93 in 10.0 mi SW 20.7 mph 28.8 mph N/A   Clear
6:40 PM 77.0 °F 41.0 °F 28% 29.94 in 10.0 mi West 18.4 mph - N/A   Clear
7:00 PM 75.2 °F 41.0 °F 29% 29.94 in 10.0 mi West 15.0 mph - N/A   Clear
7:20 PM 73.4 °F 41.0 °F 31% 29.95 in 10.0 mi West 15.0 mph 23.0 mph N/A   Clear
7:40 PM 73.4 °F 41.0 °F 31% 29.95 in 10.0 mi West 15.0 mph 20.7 mph N/A   Clear
8:00 PM 71.6 °F 41.0 °F 33% 29.96 in 10.0 mi WSW 10.4 mph 17.3 mph N/A   Clear
8:20 PM 69.8 °F 41.0 °F 35% 29.96 in 10.0 mi WSW 9.2 mph - N/A   Clear
8:40 PM 69.8 °F 42.8 °F 38% 29.97 in 10.0 mi SW 5.8 mph - N/A   Clear
9:00 PM 68.0 °F 42.8 °F 40% 29.97 in 10.0 mi West 6.9 mph - N/A   Clear
9:20 PM 68.0 °F 42.8 °F 40% 29.97 in 10.0 mi West 5.8 mph - N/A   Scattered Clouds
9:40 PM 66.2 °F 42.8 °F 43% 29.98 in 10.0 mi WSW 3.5 mph - N/A   Partly Cloudy
10:00 PM 66.2 °F 42.8 °F 43% 29.98 in 10.0 mi West 6.9 mph - N/A   Clear
10:20 PM 64.4 °F 44.6 °F 49% 29.98 in 10.0 mi SW 5.8 mph - N/A   Clear
10:40 PM 62.6 °F 42.8 °F 48% 29.98 in 10.0 mi West 4.6 mph - N/A   Partly Cloudy
11:00 PM 64.4 °F 42.8 °F 45% 29.98 in 10.0 mi West 4.6 mph - N/A   Partly Cloudy
11:20 PM 64.4 °F 44.6 °F 49% 29.97 in 10.0 mi WSW 4.6 mph - N/A   Clear
11:40 PM 64.4 °F 44.6 °F 49% 29.96 in 10.0 mi WSW 8.1 mph - N/A   Clear